Flag for Canada Weather past 2 weeks in Fort Liard, Northwest Territories, Canada

Now
28 °F

Chilly.


Feels Like: 28 °F
Forecast: 25 / 46 °F
Wind: 1 mph from North

Location: Lindberg Landing

Current Time: Apr 25, 2015 at 3:35:47 AM

Latest Report: Apr 25, 2015 at 2:00 AM


Visibility: N/A

Pressure: 30.19 "Hg

Humidity: 71%

Dew point: 19 °F

Location of Fort LiardLocation

Historic Weather in Fort Liard — Graph

°F

Fort Liard temperature yesterday

Maximum temperature yesterday: 40 °F (at 5:00 PM)
Minimum temperature yesterday: 26 °F (at 3:00 AM)
Average temperature yesterday: 32 °F

Past Weeks' High & Low Weather Summary

 TemperatureHumidityPressure
High61 °F (Apr 10, 3:00 PM)100% (Apr 15, 2:00 AM)30.24 "Hg (Apr 15, 2:00 AM)
Low14 °F (Apr 15, 5:00 AM)20% (Apr 10, 3:00 PM)29.02 "Hg (Apr 11, 1:00 PM)
Average38 °F65%29.78 "Hg
* Reported Apr 10 2:00 AM — Apr 25 2:00 AM, Fort Liard, Weather by CustomWeather, © 2015

Note: Actual official high and low records may vary slightly from our data, if they occured in-between our weather recording intervals... More about our weather records

Advertising

Fort Liard weather history for previous 24 hours

 ConditionsComfort  
Time TempWeatherWind HumidityBarometerVisibility
2:00 AM
Sat, Apr 25
28 °FChilly.1 mph71%30.19 "HgN/A
1:00 AM29 °FChilly.2 mph57%30.19 "HgN/A
12:00 AM29 °FChilly.1 mph65%30.18 "HgN/A
11:00 PM
Fri, Apr 24
28 °FChilly.2 mph64%30.18 "HgN/A
10:00 PM31 °FChilly.1 mph59%30.18 "HgN/A
9:00 PM37 °FChilly.3 mph39%30.16 "HgN/A
8:00 PM40 °FChilly.5 mph30%30.16 "HgN/A
7:00 PM40 °FQuite cool.5 mph35%30.16 "HgN/A
5:00 PM40 °FQuite cool.6 mph25%30.16 "HgN/A
4:00 PM39 °FChilly.7 mph41%30.18 "HgN/A
3:00 PM38 °FChilly.6 mph45%30.19 "HgN/A
2:00 PM38 °FChilly.3 mph45%30.21 "HgN/A
1:00 PM35 °FChilly.7 mph51%30.22 "HgN/A
12:00 PM34 °FChilly.5 mph54%30.22 "HgN/A
11:00 AM31 °FChilly.5 mph59%30.22 "HgN/A
10:00 AM30 °FChilly.5 mph62%30.22 "HgN/A
9:00 AM28 °FChilly.3 mph72%30.22 "HgN/A
8:00 AM27 °FChilly.3 mph76%30.22 "HgN/A
7:00 AM28 °FChilly.3 mph89%30.20 "HgN/A
6:00 AM28 °FChilly.3 mph91%30.20 "HgN/A
5:00 AM28 °FChilly.2 mph95%30.18 "HgN/A
4:00 AM27 °FChilly.3 mph98%30.18 "HgN/A
3:00 AM26 °FChilly.1 mph99%30.17 "HgN/A
Weather by CustomWeather, © 2015

See weather overviewHow to use our weather pages